Precipitable_Water
0.39 0.47 0.55 0.46 0.31 0.24 0.18 0.19 0.24 0.23 0.24 0.28 0.28 0.27 0.22 0.25 0.24 0.21 0.54 0.74 0.79 0.96 1.14 1.22 1.31 1.37 1.44 1.50 1.52 1.54 1.53 1.54 1.53 1.50 1.46 1.44 1.43 1.41 1.51 1.45 1.32 1.31 1.26 1.24 1.15 1.09 1.02 0.98 0.99
0.44 0.49 0.49 0.35 0.24 0.16 0.17 0.21 0.22 0.24 0.26 0.29 0.27 0.28 0.26 0.22 0.33 0.40 0.52 0.63 0.78 0.93 1.13 1.21 1.28 1.32 1.32 1.37 1.41 1.42 1.41 1.41 1.41 1.34 1.26 1.22 1.22 1.28 1.30 1.19 1.18 1.22 1.20 1.18 1.15 1.06 0.95 0.87 0.87
0.52 0.47 0.37 0.26 0.20 0.17 0.16 0.21 0.23 0.23 0.26 0.28 0.27 0.31 0.30 0.28 0.39 0.46 0.61 0.67 0.80 0.89 1.09 1.20 1.24 1.27 1.30 1.30 1.28 1.27 1.28 1.32 1.30 1.21 1.13 1.08 1.08 1.11 1.07 1.04 1.12 1.09 1.05 0.97 0.92 1.01 0.92 0.82 0.76
0.44 0.39 0.27 0.21 0.17 0.18 0.19 0.21 0.26 0.24 0.25 0.29 0.30 0.25 0.31 0.48 0.47 0.59 0.72 0.74 0.80 0.90 1.08 1.20 1.20 1.24 1.25 1.27 1.22 1.21 1.25 1.29 1.20 1.12 1.10 1.09 1.07 1.01 1.01 1.07 1.11 1.00 0.91 0.82 0.75 0.87 0.83 0.74 0.68
0.38 0.30 0.20 0.16 0.16 0.16 0.20 0.24 0.27 0.26 0.24 0.26 0.27 0.25 0.31 0.43 0.59 0.66 0.68 0.75 0.78 0.90 1.02 1.17 1.20 1.24 1.28 1.29 1.26 1.25 1.26 1.24 1.19 1.15 1.14 1.18 1.20 1.08 1.05 1.01 1.01 0.93 0.88 0.80 0.71 0.70 0.67 0.61 0.57
0.28 0.26 0.16 0.15 0.16 0.17 0.22 0.24 0.24 0.25 0.24 0.23 0.25 0.25 0.33 0.47 0.49 0.64 0.70 0.78 0.84 0.87 0.98 1.08 1.15 1.20 1.26 1.25 1.28 1.29 1.27 1.29 1.34 1.28 1.18 1.24 1.24 1.29 1.21 1.10 0.99 0.96 0.93 0.86 0.75 0.62 0.59 0.51 0.44
0.23 0.18 0.17 0.17 0.16 0.17 0.21 0.25 0.24 0.24 0.25 0.27 0.31 0.28 0.36 0.40 0.49 0.63 0.64 0.64 0.68 0.83 0.93 0.99 1.05 1.11 1.17 1.22 1.23 1.27 1.27 1.28 1.30 1.29 1.28 1.24 1.29 1.29 1.20 1.16 1.11 1.06 1.03 1.00 0.90 0.82 0.58 0.47 0.37
0.20 0.17 0.13 0.15 0.16 0.18 0.23 0.24 0.28 0.28 0.28 0.35 0.34 0.29 0.33 0.40 0.48 0.59 0.57 0.57 0.59 0.65 0.71 0.79 0.95 1.03 1.08 1.15 1.17 1.20 1.24 1.28 1.30 1.30 1.27 1.25 1.24 1.24 1.16 1.13 1.16 1.12 1.06 1.02 0.98 0.94 0.83 0.53 0.34
0.20 0.14 0.13 0.15 0.16 0.21 0.24 0.23 0.29 0.33 0.30 0.32 0.34 0.36 0.40 0.43 0.47 0.50 0.52 0.50 0.52 0.54 0.60 0.65 0.71 0.82 0.98 1.07 1.16 1.19 1.24 1.29 1.32 1.30 1.24 1.23 1.26 1.28 1.29 1.27 1.18 1.12 1.06 1.03 1.00 0.95 0.94 0.80 0.51
0.18 0.14 0.15 0.20 0.21 0.22 0.24 0.26 0.29 0.28 0.28 0.29 0.33 0.39 0.42 0.44 0.45 0.45 0.45 0.45 0.47 0.49 0.52 0.56 0.62 0.68 0.77 0.93 1.02 1.07 1.14 1.20 1.27 1.30 1.33 1.32 1.36 1.40 1.38 1.29 1.22 1.13 1.11 1.09 1.04 0.97 0.90 0.87 0.76
0.19 0.15 0.17 0.19 0.22 0.25 0.25 0.27 0.31 0.28 0.27 0.31 0.33 0.37 0.40 0.43 0.44 0.46 0.46 0.48 0.49 0.52 0.54 0.56 0.58 0.62 0.68 0.82 0.98 1.03 1.06 1.10 1.19 1.27 1.39 1.42 1.38 1.36 1.26 1.21 1.17 1.16 1.11 1.12 1.07 1.03 0.98 0.90 0.83
0.17 0.18 0.19 0.23 0.26 0.26 0.26 0.31 0.29 0.30 0.33 0.38 0.38 0.40 0.40 0.42 0.44 0.46 0.46 0.48 0.49 0.53 0.57 0.62 0.63 0.64 0.66 0.70 1.00 1.07 1.07 1.13 1.19 1.28 1.34 1.38 1.34 1.36 1.30 1.23 1.22 1.21 1.17 1.14 1.10 1.05 1.00 0.96 0.91
0.20 0.22 0.24 0.27 0.28 0.30 0.32 0.29 0.30 0.33 0.39 0.40 0.39 0.40 0.40 0.43 0.45 0.47 0.48 0.50 0.52 0.54 0.60 0.65 0.68 0.68 0.69 0.66 0.94 1.13 1.15 1.18 1.21 1.22 1.24 1.28 1.29 1.28 1.31 1.29 1.30 1.29 1.27 1.21 1.13 1.06 1.02 1.01 0.94
0.28 0.26 0.26 0.29 0.31 0.34 0.32 0.33 0.36 0.36 0.41 0.39 0.39 0.40 0.42 0.43 0.44 0.46 0.47 0.48 0.51 0.57 0.63 0.67 0.68 0.74 0.67 0.72 0.96 1.03 1.08 1.07 1.07 1.09 1.10 1.12 1.15 1.15 1.17 1.14 1.20 1.23 1.25 1.24 1.18 1.12 1.07 1.02 0.98
0.30 0.26 0.30 0.32 0.35 0.35 0.38 0.32 0.32 0.39 0.42 0.39 0.39 0.41 0.42 0.43 0.44 0.45 0.47 0.49 0.53 0.60 0.67 0.68 0.72 0.77 0.78 0.83 0.91 0.99 1.02 1.03 1.00 0.99 1.03 1.05 1.09 1.13 1.15 1.16 1.17 1.20 1.23 1.21 1.20 1.18 1.15 1.08 1.03
0.28 0.29 0.26 0.36 0.37 0.38 0.37 0.29 0.38 0.41 0.39 0.38 0.39 0.41 0.42 0.43 0.44 0.48 0.50 0.52 0.57 0.63 0.65 0.70 0.74 0.75 0.77 0.82 0.89 0.93 0.99 1.01 1.01 1.01 1.02 1.04 1.06 1.08 1.09 1.10 1.09 1.15 1.20 1.20 1.16 1.12 1.10 1.08 1.06
0.29 0.23 0.29 0.32 0.37 0.37 0.36 0.33 0.40 0.41 0.40 0.39 0.40 0.42 0.42 0.44 0.47 0.50 0.52 0.53 0.57 0.63 0.66 0.68 0.72 0.74 0.77 0.83 0.88 0.92 0.93 0.93 0.95 0.97 0.98 0.99 0.98 1.01 1.01 1.00 1.04 1.08 1.07 1.09 1.09 1.08 0.99 0.94 0.89
0.27 0.28 0.30 0.30 0.35 0.37 0.36 0.36 0.40 0.42 0.41 0.41 0.43 0.43 0.43 0.44 0.46 0.49 0.51 0.54 0.59 0.65 0.69 0.71 0.74 0.77 0.80 0.81 0.83 0.83 0.85 0.86 0.88 0.84 0.83 0.85 0.87 0.88 0.88 0.86 0.87 0.89 0.85 0.85 0.88 0.83 0.83 0.76 0.73
0.33 0.32 0.31 0.35 0.39 0.36 0.36 0.36 0.39 0.42 0.42 0.42 0.43 0.44 0.43 0.44 0.47 0.50 0.52 0.54 0.58 0.65 0.67 0.70 0.73 0.77 0.79 0.78 0.76 0.74 0.71 0.73 0.71 0.70 0.72 0.68 0.67 0.69 0.71 0.69 0.68 0.67 0.63 0.63 0.65 0.66 0.64 0.60 0.58
0.35 0.32 0.31 0.37 0.39 0.37 0.35 0.34 0.39 0.41 0.40 0.44 0.44 0.44 0.44 0.44 0.45 0.48 0.50 0.53 0.54 0.61 0.66 0.69 0.72 0.74 0.73 0.71 0.69 0.68 0.66 0.65 0.64 0.59 0.55 0.55 0.55 0.54 0.52 0.52 0.51 0.50 0.48 0.49 0.49 0.52 0.52 0.53 0.52
0.34 0.32 0.33 0.34 0.38 0.39 0.37 0.32 0.36 0.42 0.45 0.46 0.47 0.47 0.46 0.44 0.44 0.46 0.47 0.50 0.53 0.58 0.62 0.66 0.69 0.69 0.69 0.69 0.67 0.65 0.60 0.56 0.49 0.46 0.43 0.43 0.43 0.43 0.43 0.41 0.40 0.38 0.37 0.36 0.36 0.37 0.38 0.37 0.43
0.32 0.40 0.38 0.37 0.35 0.30 0.41 0.25 0.36 0.42 0.44 0.46 0.45 0.45 0.45 0.44 0.45 0.46 0.46 0.47 0.50 0.55 0.62 0.64 0.64 0.64 0.66 0.67 0.63 0.56 0.48 0.40 0.38 0.38 0.39 0.38 0.38 0.36 0.35 0.34 0.34 0.33 0.33 0.32 0.31 0.31 0.30 0.30 0.28
0.39 0.46 0.42 0.42 0.38 0.38 0.38 0.33 0.35 0.44 0.41 0.42 0.45 0.45 0.45 0.45 0.45 0.45 0.46 0.46 0.49 0.54 0.56 0.59 0.60 0.60 0.60 0.58 0.53 0.44 0.39 0.39 0.37 0.37 0.36 0.35 0.34 0.34 0.33 0.32 0.31 0.31 0.31 0.30 0.28 0.27 0.25 0.24 0.22
0.51 0.47 0.47 0.46 0.42 0.30 0.36 0.37 0.32 0.37 0.40 0.42 0.45 0.45 0.45 0.45 0.45 0.45 0.46 0.46 0.47 0.51 0.52 0.52 0.52 0.51 0.50 0.46 0.42 0.41 0.39 0.38 0.37 0.36 0.33 0.31 0.31 0.32 0.31 0.30 0.29 0.28 0.26 0.25 0.23 0.20 0.18 0.17 0.16
0.49 0.45 0.36 0.32 0.32 0.28 0.39 0.36 0.35 0.42 0.44 0.43 0.43 0.44 0.45 0.45 0.43 0.42 0.43 0.43 0.43 0.43 0.44 0.45 0.44 0.42 0.41 0.41 0.41 0.41 0.39 0.37 0.34 0.32 0.32 0.31 0.29 0.29 0.29 0.28 0.26 0.24 0.22 0.20 0.19 0.17 0.16 0.16 0.15
0.45 0.45 0.37 0.29 0.30 0.33 0.40 0.30 0.34 0.45 0.48 0.47 0.47 0.46 0.45 0.44 0.43 0.42 0.42 0.41 0.41 0.42 0.42 0.41 0.40 0.39 0.41 0.41 0.40 0.39 0.37 0.34 0.34 0.33 0.32 0.31 0.31 0.30 0.28 0.26 0.25 0.23 0.20 0.17 0.16 0.16 0.15 0.16 0.15
0.43 0.40 0.50 0.41 0.41 0.34 0.34 0.36 0.41 0.44 0.45 0.46 0.46 0.46 0.44 0.44 0.44 0.43 0.43 0.42 0.41 0.41 0.41 0.39 0.39 0.39 0.39 0.38 0.38 0.38 0.35 0.33 0.33 0.34 0.34 0.32 0.30 0.29 0.28 0.26 0.24 0.22 0.19 0.17 0.17 0.16 0.16 0.16 0.16
0.48 0.52 0.41 0.42 0.31 0.29 0.32 0.33 0.33 0.39 0.41 0.44 0.45 0.45 0.46 0.46 0.44 0.44 0.43 0.42 0.42 0.41 0.39 0.38 0.38 0.37 0.39 0.39 0.38 0.34 0.33 0.34 0.34 0.34 0.34 0.32 0.30 0.29 0.27 0.24 0.21 0.19 0.18 0.17 0.16 0.16 0.15 0.14 0.14
0.46 0.44 0.46 0.45 0.41 0.32 0.29 0.31 0.43 0.43 0.44 0.44 0.46 0.47 0.47 0.46 0.45 0.45 0.44 0.42 0.41 0.40 0.38 0.38 0.37 0.38 0.40 0.38 0.36 0.35 0.35 0.35 0.35 0.34 0.32 0.30 0.27 0.25 0.23 0.22 0.20 0.18 0.18 0.17 0.16 0.15 0.14 0.13 0.13
0.50 0.47 0.47 0.39 0.37 0.40 0.38 0.31 0.47 0.47 0.47 0.46 0.45 0.47 0.48 0.48 0.46 0.45 0.45 0.44 0.42 0.40 0.39 0.38 0.39 0.40 0.39 0.37 0.37 0.37 0.37 0.35 0.34 0.32 0.29 0.27 0.25 0.24 0.22 0.21 0.20 0.19 0.19 0.18 0.16 0.15 0.15 0.14 0.13
Wind_Speed
2 3 4 4 3 5 6 7 6 7 7 8 7 7 9 8 6 5 5 5 5 6 7 7 7 7 7 7 6 5 4 3 2 1 1 2 3 3 3 4 5 5 5 5 5 6 6 6 7
3 3 3 4 3 5 6 6 6 7 7 6 6 6 6 9 9 7 5 4 4 5 6 6 6 6 6 6 5 4 3 2 1 1 2 2 3 3 4 5 4 5 5 6 7 7 7 8 8
3 3 3 3 3 4 4 4 5 5 5 3 4 5 4 6 6 5 5 4 4 4 5 5 6 6 5 5 4 3 3 2 1 1 2 2 3 3 4 5 5 6 6 7 8 8 8 9 9
2 2 2 2 2 3 4 4 4 4 3 3 2 5 5 5 3 4 5 4 4 4 4 4 5 5 5 4 4 4 3 3 2 2 3 3 3 4 4 4 5 6 6 8 8 8 8 9 9
1 1 1 2 2 2 2 3 2 2 2 3 2 3 3 3 3 3 4 4 4 3 3 3 4 4 4 4 4 4 4 4 4 4 5 5 5 5 5 6 6 7 7 8 9 8 9 9 9
2 2 2 2 1 2 2 3 2 1 2 2 1 2 2 2 1 1 2 3 3 2 1 1 3 4 4 5 5 5 5 5 5 6 6 6 6 6 7 7 8 8 9 9 9 10 10 10 10
4 4 4 3 3 3 4 4 3 2 2 1 1 1 2 1 0 1 0 1 1 1 1 1 2 5 6 6 6 6 6 6 7 7 7 8 8 8 8 9 9 10 10 11 11 11 12 12 11
5 5 5 5 5 5 5 6 3 3 2 2 2 2 2 1 2 2 2 2 2 3 3 3 4 5 6 7 8 8 8 8 8 8 9 9 9 10 10 11 11 12 12 12 13 13 13 13 13
6 7 7 6 7 5 6 7 6 5 5 4 4 4 4 4 5 4 5 4 4 4 5 5 5 6 7 8 8 9 10 10 10 11 11 11 12 12 12 12 13 14 14 14 15 15 15 15 15
8 8 7 6 7 7 7 8 7 7 7 6 5 4 5 4 4 5 5 5 6 6 6 7 7 8 8 9 9 10 10 11 11 12 12 13 13 13 13 14 15 15 15 16 16 17 17 17 17
9 10 8 8 7 7 8 9 8 9 10 8 9 6 5 4 4 4 4 5 6 6 7 7 7 8 8 9 9 10 10 11 11 12 13 13 14 15 16 17 18 18 18 18 18 19 19 19 19
11 10 9 9 9 8 9 9 10 11 9 8 7 7 7 6 5 5 6 6 7 7 7 8 8 8 8 8 9 9 9 10 11 11 12 12 14 15 17 18 19 20 20 20 21 21 21 21 21
12 11 11 10 9 11 11 13 13 13 10 9 8 8 8 7 7 7 7 8 8 8 8 8 8 8 8 8 8 8 8 8 8 10 11 13 14 15 16 17 19 20 21 22 23 23 24 24 24
11 12 12 12 13 13 14 15 13 13 11 11 11 10 9 8 8 8 8 8 9 8 8 8 8 8 8 9 9 9 10 10 11 12 13 14 15 17 18 19 20 21 22 23 24 25 25 26 26
13 14 15 16 16 14 14 17 17 14 13 14 13 12 11 10 9 9 9 9 9 8 8 8 8 8 8 8 8 8 9 10 11 12 13 14 15 16 17 19 21 22 23 24 25 25 26 27 28
15 15 16 11 14 13 14 15 11 12 14 14 14 13 12 12 12 11 11 11 10 10 9 8 7 7 7 6 7 7 7 8 10 11 12 14 15 17 18 19 20 21 22 23 25 27 27 28 28
17 18 16 14 15 13 16 14 12 14 15 15 16 15 15 14 14 14 13 13 12 11 10 9 8 7 7 7 6 7 7 9 10 12 13 14 16 17 17 18 20 21 22 23 25 26 28 29 29
18 18 18 19 14 17 18 20 15 16 18 18 18 18 18 17 17 16 15 14 13 12 12 10 9 8 7 8 8 9 10 11 12 13 14 15 16 18 19 20 21 23 25 26 26 26 26 27 28
20 19 21 19 16 18 22 23 22 19 21 22 22 21 20 19 19 18 16 15 14 14 13 11 10 10 9 9 9 11 12 13 14 15 16 17 17 18 19 20 21 22 24 25 26 27 27 28 29
23 23 24 23 18 21 24 27 26 26 24 26 25 24 23 21 20 18 17 17 16 14 13 12 12 12 12 12 13 14 14 15 15 15 16 17 18 19 20 21 23 24 26 27 28 29 30 31 31
24 25 24 24 19 24 26 30 31 30 30 27 25 25 23 22 20 19 18 18 17 16 15 14 14 14 13 13 14 14 14 15 16 16 17 18 19 21 22 24 26 27 29 30 31 32 33 34 34
26 24 25 26 23 24 20 25 22 20 23 23 24 24 22 22 21 20 19 18 17 17 17 16 15 14 14 15 15 16 16 17 18 18 19 20 22 24 26 27 29 30 32 33 34 35 35 36 36
24 20 23 25 26 28 29 25 25 25 25 24 23 23 22 21 21 20 19 18 17 17 17 16 16 16 16 16 16 17 17 18 19 20 21 24 26 28 29 31 32 33 35 36 36 37 37 38 38
20 19 19 22 24 27 29 27 25 22 20 23 21 22 21 21 20 19 19 18 18 17 17 17 17 17 17 18 18 18 19 21 22 24 25 27 29 30 31 33 34 36 38 38 39 39 39 39 39
24 19 19 20 21 24 19 24 29 19 17 18 20 21 21 21 20 19 19 19 18 18 18 18 18 18 19 20 20 21 22 24 25 26 28 29 31 33 35 36 38 39 40 41 41 41 41 41 41
27 25 21 21 21 20 19 24 23 22 19 17 19 20 20 21 21 21 21 20 20 20 20 20 21 21 22 22 23 24 25 27 28 29 30 32 34 36 37 38 40 41 41 41 41 42 42 42 42
22 28 27 24 22 23 24 26 26 21 21 20 19 20 21 22 22 22 22 22 22 23 23 23 23 24 24 25 26 27 28 29 30 31 33 35 36 38 39 41 42 43 42 42 43 43 43 43 44
27 23 22 24 22 23 25 28 25 22 24 23 22 22 22 23 23 23 24 24 24 25 25 26 26 26 27 28 28 29 30 31 32 34 36 37 39 40 41 42 42 42 42 43 43 43 43 43 44
25 26 26 24 26 23 23 25 22 25 24 24 25 24 23 24 24 24 25 26 27 27 27 28 28 29 29 30 31 32 32 33 35 37 38 40 40 41 41 42 42 42 42 43 43 44 44 44 45
34 30 32 26 23 25 26 31 22 21 22 23 25 25 24 25 25 26 28 29 28 29 30 30 30 31 32 32 33 34 35 37 38 39 40 40 40 41 41 41 42 42 43 43 44 45 45 45 46
Wind_Direction
61 60 61 51 53 74 92 81 76 83 82 68 69 64 74 63 51 83 89 90 86 123 133 140 140 139 140 143 146 150 150 153 176 219 268 278 287 288 285 300 309 318 325 319 311 306 305 303 301
86 67 65 44 53 106 90 97 87 73 77 81 77 79 87 81 73 88 93 89 82 130 141 145 147 144 147 149 151 153 155 159 177 278 300 299 295 287 290 303 305 313 316 313 307 303 303 302 299
98 71 37 25 38 82 109 116 98 83 72 80 80 64 69 73 68 79 71 84 84 127 149 155 163 162 161 162 166 172 182 188 216 294 312 314 312 306 304 304 302 311 317 318 315 305 305 303 300
98 74 36 341 79 77 102 120 108 104 71 72 71 80 85 61 79 74 76 72 79 106 150 163 175 180 186 190 197 207 218 230 256 279 298 305 307 309 311 309 310 315 317 321 320 311 309 307 303
178 338 343 47 80 120 129 121 125 115 77 87 70 85 78 64 85 80 70 68 73 90 123 166 184 194 203 213 223 233 241 250 265 278 287 291 293 300 304 306 303 307 313 318 320 315 312 309 306
248 294 277 228 144 164 171 162 161 132 101 104 67 109 66 92 101 91 71 64 60 72 102 166 203 216 224 231 238 243 250 257 267 277 284 287 288 295 297 299 300 301 304 309 314 315 312 310 306
273 268 280 279 201 201 203 194 208 188 170 95 7 297 127 84 163 211 262 353 353 352 298 256 242 241 243 247 249 254 259 265 272 280 285 287 282 288 294 297 298 299 301 303 306 308 307 305 302
269 275 265 252 228 232 211 211 222 239 209 262 295 260 201 293 286 254 267 284 300 300 293 277 268 265 256 254 255 257 261 266 271 277 283 286 285 287 290 292 294 296 298 299 301 303 304 301 297
271 268 259 257 247 245 225 222 228 245 255 263 281 286 273 278 272 262 263 276 283 285 284 283 278 274 267 263 263 261 262 267 271 276 280 283 285 286 288 292 294 294 295 295 296 298 300 299 297
271 273 267 277 259 251 227 233 233 247 246 251 259 268 273 275 271 267 272 275 283 286 285 282 279 276 272 267 267 266 266 268 272 277 281 281 284 285 285 290 294 296 295 294 295 295 296 296 294
271 275 268 259 260 255 233 238 246 252 256 259 257 253 261 264 275 276 278 284 287 288 286 286 283 279 274 269 268 269 268 270 274 277 280 281 281 283 284 287 289 291 291 293 293 294 294 293 292
265 267 266 264 256 249 243 252 254 256 263 258 257 253 250 258 271 277 280 283 288 287 289 287 286 283 278 272 269 267 268 272 274 279 281 284 283 286 288 288 288 289 288 290 290 290 291 291 290
264 264 263 259 253 253 258 256 260 259 252 248 248 247 246 255 266 272 277 279 283 285 286 285 286 279 275 270 268 268 267 273 278 285 289 288 289 292 293 293 292 290 289 290 289 289 288 287 287
270 264 261 258 256 258 258 260 261 258 239 244 245 243 245 255 265 268 275 281 284 281 283 283 283 279 269 266 268 267 268 273 280 286 291 293 292 293 295 295 294 293 293 294 292 291 289 288 287
264 267 261 258 256 262 259 260 253 250 243 242 238 238 245 255 261 268 273 275 275 275 276 279 279 275 274 268 269 268 267 274 281 287 293 295 297 297 300 299 298 296 295 294 293 293 292 289 287
263 265 264 257 252 259 251 266 249 241 237 236 235 240 246 255 261 266 268 268 267 266 270 272 269 270 273 268 266 266 272 279 286 292 294 296 298 297 297 301 300 300 299 298 296 295 292 292 290
255 264 254 259 255 257 249 262 252 245 240 238 241 244 248 253 258 265 265 264 262 261 261 263 267 267 268 264 266 266 274 286 293 297 300 301 301 301 300 300 301 301 301 299 298 298 295 294 292
264 254 260 262 259 257 253 257 256 250 246 247 247 249 252 255 259 262 261 259 257 258 257 256 259 260 259 263 268 275 280 288 293 296 300 302 303 302 301 302 302 302 302 300 299 299 297 296 294
268 267 267 268 263 265 261 261 262 250 252 253 252 253 253 255 258 259 257 256 255 254 251 250 254 258 262 266 274 281 285 287 293 299 302 302 301 302 303 303 304 306 305 304 302 299 298 297 296
258 263 264 267 263 266 267 264 262 260 253 255 254 252 253 254 253 253 254 255 250 250 249 249 255 262 267 272 278 283 286 289 292 297 300 302 303 303 301 302 303 303 303 303 302 300 296 295 296
255 257 262 267 266 264 272 268 262 258 259 255 256 255 251 250 249 250 252 250 246 247 247 250 257 263 269 274 280 283 287 290 291 293 298 301 302 304 303 302 301 302 302 301 300 298 297 295 293
258 258 262 266 268 270 261 272 264 262 255 253 250 248 246 246 247 248 247 245 244 245 247 253 259 261 269 275 281 283 287 290 293 294 296 299 302 302 302 302 301 301 301 300 298 297 296 294 293
263 266 264 265 266 269 262 269 272 257 252 247 246 244 244 244 244 243 242 242 242 244 248 253 258 263 270 276 281 284 286 289 293 294 295 298 300 300 300 300 300 300 299 299 298 297 295 294 292
256 263 267 266 265 263 258 253 267 253 255 252 239 240 239 240 240 238 238 239 242 246 251 255 259 263 269 275 281 284 286 288 290 291 293 296 297 298 299 299 300 300 299 299 297 296 295 294 292
248 252 265 265 259 265 266 251 258 256 254 252 238 235 236 236 234 232 234 239 244 248 253 257 260 265 270 276 282 285 287 289 291 292 293 294 296 297 298 298 299 300 300 299 298 296 295 294 293
242 244 253 266 263 270 264 258 263 260 257 251 241 234 234 231 234 235 238 242 248 252 255 258 262 265 271 277 281 285 287 289 291 292 292 294 295 296 297 297 299 299 299 298 297 296 295 295 293
253 250 258 265 263 268 260 262 266 256 251 246 241 234 232 233 234 238 242 247 251 253 258 262 265 269 273 278 281 284 287 288 289 290 292 293 295 296 296 298 298 299 299 298 297 296 296 295 294
255 254 251 252 258 261 263 262 260 257 247 239 238 234 237 239 240 243 247 251 255 258 262 265 268 272 275 277 280 283 286 287 289 290 291 293 294 295 296 297 298 298 298 298 298 297 296 296 294
251 250 251 256 251 261 267 265 259 251 245 239 238 239 240 240 243 248 253 257 260 262 264 266 269 272 275 277 280 283 285 287 288 289 291 292 293 295 296 297 298 298 298 298 298 297 296 296 295
251 250 242 251 253 256 264 264 263 259 252 244 242 244 242 244 249 254 259 262 263 264 265 268 270 272 274 277 280 282 285 287 288 289 291 292 293 294 296 296 297 297 298 298 298 298 297 296 295